GW4862 Weather Reports


Display with metric or nautical units.
time (UTC)temp
F
wind
direction
speed
MPH
gust
MPH
rain 1hr
in
rain 24hr
in
rain mn
in
humidity
%
barometer
mb
20260508205622 68 99 3.0 3.0 0.00 0.00 0.00 41 1010.0
20260508205119 68 335 2.0 2.0 0.00 0.00 0.00 42 1010.3
20260508204615 68 19 2.0 2.0 0.00 0.00 0.00 42 1010.4
20260508204111 68 333 1.0 1.0 0.00 0.00 0.00 40 1010.3
20260508203607 68 148 4.0 4.0 0.00 0.00 0.00 42 1010.3
20260508203104 69 312 1.0 2.0 0.00 0.00 0.00 42 1010.4
20260508202600 70 324 1.0 1.0 0.00 0.00 0.00 41 1010.5
20260508202058 69 69 2.0 2.0 0.00 0.00 0.00 42 1010.3
20260508201554 68 303 1.0 1.0 0.00 0.00 0.00 41 1010.4
20260508201051 68 19 1.0 2.0 0.00 0.00 0.00 42 1010.6
20260508200548 68 326 1.0 2.0 0.00 0.00 0.00 40 1010.6
20260508200043 68 348 1.0 2.0 0.00 0.00 0.00 41 1010.5
20260508195541 68 277 1.0 2.0 0.00 0.00 0.00 40 1010.5
20260508195036 69 291 2.0 2.0 0.00 0.00 0.00 40 1010.7
20260508194534 70 252 2.0 2.0 0.00 0.00 0.00 39 1010.6
20260508194031 69 261 2.0 2.0 0.00 0.00 0.00 41 1010.7
20260508193527 69 173 2.0 2.0 0.00 0.00 0.00 39 1010.8
20260508193024 70 238 4.0 4.0 0.00 0.00 0.00 40 1010.9
20260508192521 70 353 3.0 4.0 0.00 0.00 0.00 37 1010.7
20260508192018 71 158 4.0 6.0 0.00 0.00 0.00 39 1011.0
20260508191515 71 172 2.0 4.0 0.00 0.00 0.00 41 1011.2
20260508191011 70 278 2.0 2.0 0.00 0.00 0.00 38 1011.3
20260508190509 72 215 3.0 3.0 0.00 0.00 0.00 38 1011.0
20260508190004 70 239 1.0 1.0 0.00 0.00 0.00 40 1011.3
20260508185502 69 279 2.0 2.0 0.00 0.00 0.00 39 1011.5
20260508184959 69 202 2.0 4.0 0.00 0.00 0.00 40 1011.6
20260508184457 71 296 2.0 2.0 0.00 0.00 0.00 38 1011.7
20260508183953 72 11 1.0 2.0 0.00 0.00 0.00 41 1011.8
20260508183450 72 291 0.0 1.0 0.00 0.00 0.00 41 1011.7
20260508182945 70 320 1.0 2.0 0.00 0.00 0.00 42 1012.0
20260508182443 70 313 1.0 1.0 0.00 0.00 0.00 42 1012.0
20260508181943 69 308 1.0 2.0 0.00 0.00 0.00 42 1012.0
20260508181440 70 122 2.0 3.0 0.00 0.00 0.00 43 1012.1
20260508180938 71 200 4.0 4.0 0.00 0.00 0.00 40 1012.1
20260508180435 71 118 2.0 3.0 0.00 0.00 0.00 37 1012.1
20260508175930 68 222 2.0 3.0 0.00 0.00 0.00 41 1012.3
20260508175427 69 9 4.0 4.0 0.00 0.00 0.00 41 1012.5
20260508174925 69 186 5.0 7.0 0.00 0.00 0.00 40 1012.5
20260508174423 69 333 0.0 0.0 0.00 0.00 0.00 42 1012.6
20260508173919 68 293 1.0 1.0 0.00 0.00 0.00 43 1012.7
20260508173416 68 243 3.0 3.0 0.00 0.00 0.00 43 1012.9
20260508172912 68 346 2.0 2.0 0.00 0.00 0.00 45 1012.8
20260508172410 68 195 3.0 4.0 0.00 0.00 0.00 45 1012.8
20260508171905 67 296 1.0 2.0 0.00 0.00 0.00 44 1013.0
20260508171402 69 178 4.0 4.0 0.00 0.00 0.00 44 1013.2
20260508170859 69 151 7.0 9.0 0.00 0.00 0.00 42 1013.0
20260508170356 69 94 1.0 2.0 0.00 0.00 0.00 45 1013.2
20260508165853 67 241 3.0 3.0 0.00 0.00 0.00 44 1013.6
20260508165351 68 7 2.0 3.0 0.00 0.00 0.00 44 1013.6
20260508164846 69 63 2.0 3.0 0.00 0.00 0.00 42 1013.6
20260508164344 69 326 1.0 2.0 0.00 0.00 0.00 42 1013.7
20260508163841 69 162 3.0 3.0 0.00 0.00 0.00 45 1013.7
20260508163339 68 176 2.0 2.0 0.00 0.00 0.00 44 1013.8
20260508162834 68 165 3.0 3.0 0.00 0.00 0.00 44 1013.9
20260508162331 67 142 3.0 3.0 0.00 0.00 0.00 48 1013.8
20260508161829 67 212 2.0 3.0 0.00 0.00 0.00 46 1014.0
20260508161326 68 324 0.0 1.0 0.00 0.00 0.00 47 1014.2
20260508160823 67 305 1.0 2.0 0.00 0.00 0.00 47 1014.2
20260508160322 67 320 4.0 6.0 0.00 0.00 0.00 45 1014.0
20260508155817 67 194 3.0 4.0 0.00 0.00 0.00 45 1014.2
20260508155315 66 255 2.0 2.0 0.00 0.00 0.00 46 1014.2
20260508154812 67 333 3.0 6.0 0.00 0.00 0.00 46 1014.3
20260508154309 66 300 4.0 6.0 0.00 0.00 0.00 46 1014.3
20260508153805 66 277 2.0 3.0 0.00 0.00 0.00 46 1014.5
20260508153303 67 283 2.0 2.0 0.00 0.00 0.00 47 1014.6
20260508152759 66 210 3.0 3.0 0.00 0.00 0.00 45 1014.5
20260508152255 65 211 3.0 3.0 0.00 0.00 0.00 44 1014.5
20260508151751 65 255 2.0 2.0 0.00 0.00 0.00 44 1014.6
20260508151249 65 316 1.0 2.0 0.00 0.00 0.00 46 1014.5
20260508150745 64 300 3.0 3.0 0.00 0.00 0.00 46 1014.7
20260508150242 64 307 2.0 3.0 0.00 0.00 0.00 45 1014.7
20260508145738 64 1 1.0 1.0 0.00 0.00 0.00 48 1014.8
20260508145234 64 286 1.0 1.0 0.00 0.00 0.00 47 1014.7
20260508144731 63 307 2.0 3.0 0.00 0.00 0.00 46 1014.7
20260508144230 63 205 2.0 3.0 0.00 0.00 0.00 46 1014.8
20260508143727 62 344 1.0 1.0 0.00 0.00 0.00 47 1015.1
20260508143224 63 318 1.0 2.0 0.00 0.00 0.00 48 1015.1
20260508142720 62 314 2.0 2.0 0.00 0.00 0.00 50 1014.9
20260508142217 62 343 1.0 1.0 0.00 0.00 0.00 50 1014.9
20260508141713 61 274 2.0 2.0 0.00 0.00 0.00 50 1015.3
20260508141211 61 76 2.0 2.0 0.00 0.00 0.00 51 1015.2
20260508140708 61 337 2.0 2.0 0.00 0.00 0.00 51 1015.2
20260508140204 61 27 2.0 2.0 0.00 0.00 0.00 51 1015.3
20260508135701 60 348 0.0 0.0 0.00 0.00 0.00 52 1015.2
20260508135201 59 347 0.0 1.0 0.00 0.00 0.00 51 1015.4
20260508134658 59 303 1.0 1.0 0.00 0.00 0.00 54 1015.3
20260508134155 58 290 2.0 3.0 0.00 0.00 0.00 53 1015.4
20260508133652 59 220 2.0 2.0 0.00 0.00 0.00 54 1015.3
20260508133149 58 323 1.0 1.0 0.00 0.00 0.00 54 1015.4
20260508132647 57 348 0.0 1.0 0.00 0.00 0.00 58 1015.3
20260508132144 55 311 1.0 1.0 0.00 0.00 0.00 56 1015.4
20260508131639 55 357 1.0 1.0 0.00 0.00 0.00 58 1015.2
20260508131136 55 9 1.0 1.0 0.00 0.00 0.00 57 1015.4
20260508130633 55 355 1.0 2.0 0.00 0.00 0.00 58 1015.1
20260508130130 54 162 3.0 4.0 0.00 0.00 0.00 60 1015.3
20260508125631 53 276 1.0 1.0 0.00 0.00 0.00 60 1014.9
20260508125128 53 349 0.0 0.0 0.00 0.00 0.00 63 1015.1
20260508124626 52 60 2.0 3.0 0.00 0.00 0.00 60 1015.1
20260508124123 52 355 0.0 0.0 0.00 0.00 0.00 64 1015.3
20260508123621 51 42 0.0 0.0 0.00 0.00 0.00 65 1015.1
20260508123119 49 2 0.0 0.0 0.00 0.00 0.00 67 1015.1
20260508122614 48 351 0.0 0.0 0.00 0.00 0.00 68 1015.1
20260508122112 48 340 0.0 0.0 0.00 0.00 0.00 70 1015.1
20260508121610 48 355 0.0 0.0 0.00 0.00 0.00 70 1015.1
20260508121108 48 345 0.0 0.0 0.00 0.00 0.00 70 1015.1
20260508120605 48 345 0.0 0.0 0.00 0.00 0.00 70 1015.1
20260508120103 47 353 0.0 0.0 0.00 0.00 0.00 71 1015.1
20260508115600 46 355 0.0 0.0 0.00 0.00 0.00 72 1015.2
20260508115057 46 351 0.0 0.0 0.00 0.00 0.00 75 1015.2
20260508114554 45 350 0.0 0.0 0.00 0.00 0.00 76 1014.8
20260508114050 45 357 0.0 0.0 0.00 0.00 0.00 75 1014.8
20260508113548 45 352 0.0 0.0 0.00 0.00 0.00 75 1014.7
20260508113046 45 351 0.0 0.0 0.00 0.00 0.00 75 1014.7
20260508112541 45 351 0.0 0.0 0.00 0.00 0.00 75 1014.6
20260508112039 45 351 0.0 0.0 0.00 0.00 0.00 76 1014.6
20260508111536 44 347 0.0 0.0 0.00 0.00 0.00 76 1014.5
20260508111032 44 347 0.0 0.0 0.00 0.00 0.00 77 1014.7
20260508110530 44 349 0.0 0.0 0.00 0.00 0.00 75 1014.5
20260508110026 44 347 0.0 0.0 0.00 0.00 0.00 77 1014.5
20260508105521 44 351 0.0 0.0 0.00 0.00 0.00 77 1014.5
20260508105019 44 350 0.0 0.0 0.00 0.00 0.00 77 1014.5
20260508104517 44 351 0.0 0.0 0.00 0.00 0.00 76 1014.5
20260508104013 44 351 0.0 0.0 0.00 0.00 0.00 76 1014.4
20260508103509 44 345 0.0 0.0 0.00 0.00 0.00 76 1014.4
20260508103007 44 350 0.0 0.0 0.00 0.00 0.00 77 1014.2
20260508102505 44 352 0.0 0.0 0.00 0.00 0.00 77 1014.4
20260508102002 44 347 0.0 0.0 0.00 0.00 0.00 78 1014.4
20260508101459 44 351 0.0 0.0 0.00 0.00 0.00 79 1014.5
20260508100956 44 350 0.0 0.0 0.00 0.00 0.00 80 1014.4
20260508100455 44 350 0.0 0.0 0.00 0.00 0.00 79 1014.4
20260508095951 43 351 0.0 0.0 0.00 0.00 0.00 79 1014.4
20260508095448 42 345 0.0 0.0 0.00 0.00 0.00 80 1014.3
20260508094945 42 344 0.0 0.0 0.00 0.00 0.00 80 1014.2
20260508094442 42 350 0.0 0.0 0.00 0.00 0.00 80 1014.3
20260508093939 42 350 0.0 0.0 0.00 0.00 0.00 81 1014.2
20260508093436 42 350 0.0 0.0 0.00 0.00 0.00 81 1014.3
20260508092934 41 350 0.0 0.0 0.00 0.00 0.00 82 1014.3
20260508092431 41 345 0.0 0.0 0.00 0.00 0.00 83 1014.3
20260508091930 41 345 0.0 0.0 0.00 0.00 0.00 83 1014.4
20260508091426 40 344 0.0 0.0 0.00 0.00 0.00 83 1014.5
20260508090923 40 344 0.0 0.0 0.00 0.00 0.00 83 1014.3
20260508090422 40 344 0.0 0.0 0.00 0.00 0.00 83 1014.6
20260508085917 40 350 0.0 0.0 0.00 0.00 0.00 83 1014.3
20260508085414 41 351 0.0 0.0 0.00 0.00 0.00 83 1014.4
20260508084911 40 351 0.0 0.0 0.00 0.00 0.00 83 1014.2
20260508084408 40 347 0.0 0.0 0.00 0.00 0.00 83 1014.1
20260508083906 40 347 0.0 0.0 0.00 0.00 0.00 82 1014.4
20260508083403 41 348 0.0 0.0 0.00 0.00 0.00 82 1014.2
20260508082902 41 348 0.0 0.0 0.00 0.00 0.00 82 1014.1
20260508082400 41 347 0.0 0.0 0.00 0.00 0.00 81 1014.2
20260508081857 41 347 0.0 0.0 0.00 0.00 0.00 80 1014.2
20260508081354 41 347 0.0 0.0 0.00 0.00 0.00 80 1014.3
20260508080851 41 347 0.0 0.0 0.00 0.00 0.00 81 1014.1
20260508080349 41 347 0.0 0.0 0.00 0.00 0.00 81 1014.3
20260508075845 41 347 0.0 0.0 0.00 0.00 0.00 80 1014.2
20260508075342 41 347 0.0 0.0 0.00 0.00 0.00 79 1014.2
20260508074840 41 347 0.0 0.0 0.00 0.00 0.00 79 1014.2
20260508074337 41 347 0.0 0.0 0.00 0.00 0.00 78 1014.2
20260508073834 41 347 0.0 0.0 0.00 0.00 0.00 78 1014.3
20260508073332 42 347 0.0 0.0 0.00 0.00 0.00 77 1014.1
20260508072828 42 347 0.0 0.0 0.00 0.00 0.00 77 1014.1
20260508072325 42 347 0.0 0.0 0.00 0.00 0.00 76 1014.3
20260508071822 43 347 0.0 0.0 0.00 0.00 0.00 75 1014.3
20260508071320 43 347 0.0 0.0 0.00 0.00 0.00 74 1014.2
20260508070817 43 347 0.0 0.0 0.00 0.00 0.00 73 1014.2
20260508070316 43 351 0.0 0.0 0.00 0.00 0.00 72 1014.3
20260508065813 43 347 0.0 0.0 0.00 0.00 0.00 72 1014.3
20260508065311 42 347 0.0 0.0 0.00 0.00 0.00 73 1014.4
20260508064809 42 347 0.0 0.0 0.00 0.00 0.00 73 1014.7
20260508064306 42 347 0.0 0.0 0.00 0.00 0.00 74 1014.6
20260508063803 42 347 0.0 0.0 0.00 0.00 0.00 75 1014.7
20260508063301 42 347 0.0 0.0 0.00 0.00 0.00 75 1014.7
20260508062758 42 347 0.0 0.0 0.00 0.00 0.00 74 1014.7
20260508062256 42 347 0.0 0.0 0.00 0.00 0.00 73 1014.8
20260508061752 42 347 0.0 0.0 0.00 0.00 0.00 73 1014.8
20260508061249 42 347 0.0 0.0 0.00 0.00 0.00 74 1014.9
20260508060746 42 347 0.0 0.0 0.00 0.00 0.00 74 1015.1
20260508060244 42 347 0.0 0.0 0.00 0.00 0.00 74 1014.9
20260508055739 43 347 0.0 0.0 0.00 0.00 0.00 72 1014.7
20260508055237 43 347 0.0 0.0 0.00 0.00 0.00 71 1014.9
20260508054733 43 347 0.0 0.0 0.00 0.00 0.00 71 1015.2
20260508054231 43 347 0.0 0.0 0.00 0.00 0.00 71 1015.1
20260508053728 43 347 0.0 0.0 0.00 0.00 0.00 72 1015.2
20260508053225 43 340 0.0 0.0 0.00 0.00 0.00 72 1014.9
20260508052722 43 346 0.0 0.0 0.00 0.00 0.00 72 1014.9
20260508052219 43 350 0.0 0.0 0.00 0.00 0.00 71 1014.8
20260508051715 43 344 0.0 0.0 0.00 0.00 0.00 71 1014.8
20260508051211 43 344 0.0 0.0 0.00 0.00 0.00 72 1014.9
20260508050708 43 347 0.0 0.0 0.00 0.00 0.00 71 1014.8
20260508050206 43 347 0.0 0.0 0.00 0.00 0.00 71 1014.8
20260508045705 43 344 0.0 0.0 0.00 0.00 0.00 71 1014.8
20260508045204 43 343 0.0 0.0 0.00 0.00 0.00 73 1014.8
20260508044701 43 345 0.0 0.0 0.00 0.00 0.00 72 1014.7
20260508044157 43 347 0.0 0.0 0.00 0.00 0.00 72 1014.8
20260508043653 43 347 0.0 0.0 0.00 0.00 0.00 73 1014.8
20260508043152 43 347 0.0 0.0 0.00 0.00 0.00 73 1014.8
20260508042648 43 347 0.0 0.0 0.00 0.00 0.00 73 1014.7
20260508042145 43 348 0.0 0.0 0.00 0.00 0.00 73 1014.7
20260508041641 44 349 0.0 0.0 0.00 0.00 0.00 73 1014.7
20260508041138 44 351 0.0 0.0 0.00 0.00 0.00 73 1014.6
20260508040635 44 343 0.0 0.0 0.00 0.00 0.00 74 1014.8
20260508040132 44 352 0.0 0.0 0.00 0.00 0.00 75 1014.5
20260508035629 43 347 0.0 0.0 0.00 0.00 0.00 74 1014.7
20260508035127 43 349 0.0 0.0 0.00 0.00 0.00 74 1014.9
20260508034624 43 350 0.0 0.0 0.00 0.00 0.00 75 1014.7
20260508034121 43 347 0.0 0.0 0.00 0.00 0.00 76 1014.8
20260508033618 43 347 0.0 0.0 0.00 0.00 0.00 76 1014.9
20260508033116 44 347 0.0 0.0 0.00 0.00 0.00 73 1014.7
20260508032612 44 347 0.0 0.0 0.00 0.00 0.00 73 1014.9
20260508032110 44 347 0.0 0.0 0.00 0.00 0.00 70 1014.7
20260508031607 44 347 0.0 0.0 0.00 0.00 0.00 70 1014.9
20260508031103 44 347 0.0 0.0 0.00 0.00 0.00 68 1014.8
20260508030559 44 347 0.0 0.0 0.00 0.00 0.00 69 1014.8
20260508030058 44 347 0.0 0.0 0.00 0.00 0.00 69 1014.8
20260508025553 44 347 0.0 0.0 0.00 0.00 0.00 70 1014.9
20260508025050 44 347 0.0 0.0 0.00 0.00 0.00 69 1014.7
20260508024546 45 347 0.0 0.0 0.00 0.00 0.00 69 1014.7
20260508024044 45 347 0.0 0.0 0.00 0.00 0.00 68 1014.7
20260508023540 45 344 0.0 0.0 0.00 0.00 0.00 66 1014.6
20260508023038 44 344 0.0 0.0 0.00 0.00 0.00 67 1014.6
20260508022533 45 344 0.0 0.0 0.00 0.00 0.00 68 1014.6
20260508022031 45 344 0.0 0.0 0.00 0.00 0.00 67 1014.6
20260508021526 46 344 0.0 0.0 0.00 0.00 0.00 66 1014.7
20260508021022 46 344 0.0 0.0 0.00 0.00 0.00 64 1014.8
20260508020520 46 344 0.0 0.0 0.00 0.00 0.00 65 1014.5
20260508020018 46 344 0.0 0.0 0.00 0.00 0.00 61 1014.6
20260508015515 46 344 0.0 0.0 0.00 0.00 0.00 63 1014.7
20260508015012 46 344 0.0 0.0 0.00 0.00 0.00 61 1014.6
20260508014508 46 344 0.0 0.0 0.00 0.00 0.00 60 1014.7
20260508014004 45 344 0.0 0.0 0.00 0.00 0.00 62 1014.7
20260508013501 45 344 0.0 0.0 0.00 0.00 0.00 63 1014.6
20260508012958 46 344 0.0 0.0 0.00 0.00 0.00 61 1014.6
20260508012455 46 344 0.0 0.0 0.00 0.00 0.00 60 1014.4
20260508011952 47 344 0.0 0.0 0.00 0.00 0.00 61 1014.4
20260508011450 47 344 0.0 0.0 0.00 0.00 0.00 60 1014.4
20260508010947 47 344 0.0 0.0 0.00 0.00 0.00 58 1014.6
20260508010444 48 344 0.0 0.0 0.00 0.00 0.00 58 1014.5
20260508005941 48 346 0.0 0.0 0.00 0.00 0.00 59 1014.3
20260508005438 49 346 0.0 0.0 0.00 0.00 0.00 56 1014.4
20260508004934 49 346 0.0 0.0 0.00 0.00 0.00 56 1014.2
20260508004431 50 346 0.0 0.0 0.00 0.00 0.00 55 1014.3
20260508003927 51 346 0.0 0.0 0.00 0.00 0.00 54 1014.3
20260508003424 51 346 0.0 0.0 0.00 0.00 0.00 52 1014.2
20260508002921 52 347 0.0 0.0 0.00 0.00 0.00 51 1014.3
20260508002418 53 334 0.0 0.0 0.00 0.00 0.00 48 1014.1
20260508001914 54 330 0.0 0.0 0.00 0.00 0.00 47 1014.2
20260508001410 55 335 0.0 0.0 0.00 0.00 0.00 43 1014.0
20260508000907 55 325 0.0 0.0 0.00 0.00 0.00 43 1014.1
20260508000404 55 324 0.0 1.0 0.00 0.00 0.00 43 1014.0
20260507235900 56 326 0.0 1.0 0.00 0.00 0.00 44 1014.2
20260507235357 56 328 0.0 0.0 0.00 0.00 0.00 45 1013.9
20260507234854 56 327 0.0 0.0 0.00 0.00 0.00 42 1013.9
20260507234351 57 355 0.0 1.0 0.00 0.00 0.00 40 1014.0
20260507233847 57 331 0.0 0.0 0.00 0.00 0.00 42 1013.9
20260507233345 57 328 0.0 0.0 0.00 0.00 0.00 42 1013.8
20260507232843 58 317 0.0 1.0 0.00 0.00 0.00 40 1014.0
20260507232339 59 288 1.0 1.0 0.00 0.00 0.00 36 1013.8
20260507231837 61 278 2.0 2.0 0.00 0.00 0.00 37 1013.9
20260507231333 62 313 0.0 0.0 0.00 0.00 0.00 33 1013.7
20260507230829 62 322 1.0 1.0 0.00 0.00 0.00 36 1013.9
20260507230327 61 307 0.0 1.0 0.00 0.00 0.00 34 1013.8
20260507225827 61 311 1.0 1.0 0.00 0.00 0.00 35 1013.9
20260507225323 60 338 1.0 2.0 0.00 0.00 0.00 36 1013.9
20260507224819 61 345 2.0 3.0 0.00 0.00 0.00 38 1014.0
20260507224316 61 330 0.0 1.0 0.00 0.00 0.00 39 1013.9
20260507223812 60 309 3.0 4.0 0.00 0.00 0.00 36 1014.0
20260507223308 60 291 2.0 3.0 0.00 0.00 0.00 36 1014.0
20260507222806 60 257 4.0 7.0 0.00 0.00 0.00 34 1013.9
20260507222305 59 227 1.0 3.0 0.00 0.00 0.00 38 1013.8
20260507221759 59 309 1.0 2.0 0.00 0.00 0.00 37 1014.0
20260507221255 59 325 1.0 1.0 0.00 0.00 0.00 37 1014.0
20260507220751 60 237 2.0 3.0 0.00 0.00 0.00 39 1013.9
20260507220250 60 308 1.0 1.0 0.00 0.00 0.00 41 1013.9
20260507215746 60 330 0.0 0.0 0.00 0.00 0.00 41 1014.0
20260507215244 60 357 3.0 4.0 0.00 0.00 0.00 38 1014.2
20260507214740 60 333 0.0 1.0 0.00 0.00 0.00 38 1014.1
20260507214238 60 315 1.0 2.0 0.00 0.00 0.00 37 1014.0
20260507213733 60 228 4.0 6.0 0.00 0.00 0.00 38 1014.0
20260507213230 59 321 1.0 1.0 0.00 0.00 0.00 38 1013.9
20260507212726 59 298 2.0 2.0 0.00 0.00 0.00 39 1014.1
20260507212223 58 337 1.0 2.0 0.00 0.00 0.00 41 1014.1
20260507211720 60 309 1.0 1.0 0.00 0.00 0.00 42 1014.0
20260507211215 60 322 2.0 3.0 0.00 0.00 0.00 38 1014.1
20260507210713 59 323 2.0 3.0 0.00 0.00 0.00 39 1013.9
20260507210210 60 303 2.0 3.0 0.00 0.00 0.00 40 1014.0